Reflectivity
-19 -20 -20 -20 -20 -20 -20 -9 -20 -20 -20 -13 2 3 5 24 20 15 6 20 8 1 22 0 -20 -11 -14 -20 -15 29 22 17 -10 -11 -20 -20 -20 -20 -20 -20 -20 -20 -20
-20 -20 -20 -20 -20 -20 -20 -20 -20 -20 -20 -20 -20 -20 11 19 17 15 15 23 2 3 4 -11 -18 -9 10 12 -13 -19 -18 19 -19 -20 -20 -20 -20 -20 -20 -20 -20 -20 -20
-16 -20 -20 -20 -20 -20 -20 -20 -20 -20 -20 -20 -20 -20 -20 -12 -1 4 -10 -20 -20 -20 -20 -18 -13 13 5 13 -1 -20 -20 -20 0 9 -20 -20 -20 -20 -20 -20 -20 -18 -3
-20 -11 -20 -20 -20 -20 -20 -20 -20 -20 -20 -20 -20 -20 -20 -20 -20 -20 -20 -20 -20 -20 -20 -15 -5 -9 -2 15 17 2 -16 11 13 11 13 -4 -20 -20 -20 -20 -0 7 8
27 -20 -20 -20 -20 -20 -20 -20 -20 -20 3 -20 -20 -20 -20 -20 -20 -20 -20 -20 -20 -20 -20 -17 -14 5 9 16 18 12 16 15 10 6 6 -20 -20 -20 -8 13 -11 15 26
-20 8 -17 -20 -20 -20 -20 -20 -20 -20 -4 2 -20 -20 -20 -20 -20 -20 -20 -20 -20 -20 -20 -20 -20 -0 6 10 24 20 16 12 -13 -20 -20 -20 -3 -2 3 15 22 24 22
28 20 -11 -18 -20 -17 -14 -20 -20 -20 -20 -15 -20 -20 -20 -20 -20 -20 -20 -20 -20 -20 -20 -20 -20 -20 -11 -10 3 5 6 4 9 -8 -19 -9 18 28 32 20 22 19 18
29 19 24 3 -2 -20 -1 4 -3 -8 -20 8 -9 -20 -20 -20 -20 -20 -20 -20 -20 -20 -20 -18 -0 -17 -8 -6 -20 -20 -20 -9 12 12 11 20 12 15 21 33 32 14 11
-10 19 18 17 -2 2 27 26 16 14 10 6 1 -10 -20 -20 -20 -20 -20 -20 -20 -20 -20 -20 -20 -20 13 10 -20 -20 -20 3 32 29 23 33 22 34 24 6 8 13 21
8 17 -15 -18 -13 9 -19 -20 19 20 16 -17 -2 6 12 -13 4 -20 8 -13 -5 9 13 8 17 12 18 15 9 5 19 23 23 28 29 20 22 23 14 19 25 27 25
-20 -20 7 13 10 7 4 5 17 4 -12 21 5 11 0 -6 -9 3 -7 2 15 15 17 16 -5 19 12 19 19 -0 17 27 24 20 23 24 23 22 22 20 15 16 14
-20 -20 -20 -20 -15 -4 17 18 19 13 25 27 26 33 29 28 29 23 23 21 22 -4 15 14 21 32 25 26 23 23 24 23 26 29 31 29 22 21 23 22 20 14 12
-20 -20 -20 -20 -3 13 16 19 21 16 22 17 -3 9 37 44 23 33 28 20 16 17 23 30 34 30 20 22 24 26 27 24 21 26 28 27 25 23 19 17 14 14 11
-7 -20 -20 -20 -13 -9 9 24 28 22 21 18 20 13 30 33 34 39 35 27 31 25 28 31 31 34 34 32 32 32 30 25 24 22 20 17 15 9 7 5 2 3 -4
-20 -20 -20 -20 -20 -20 -11 -0 7 24 32 25 24 36 39 14 17 22 27 28 26 23 13 21 26 30 30 29 26 24 21 19 17 15 3 -11 -15 -15 -14 -7 4 8 5
-20 -20 -20 -20 -20 -20 -20 -9 9 13 0 12 19 18 21 29 34 35 33 28 29 30 30 22 24 27 26 24 17 16 14 15 14 10 6 5 3 -0 2 -10 -20 -20 -20
-20 -20 -20 -20 -20 -20 -20 -20 -16 -10 -1 12 16 19 19 29 34 33 33 30 32 33 32 21 18 20 18 16 14 11 9 6 -0 -15 -8 -6 -1 -19 -20 -20 -20 -20 -20
-20 -20 -20 -20 -20 -20 -20 -20 -20 -20 -20 -16 -11 -3 8 14 19 21 21 21 22 21 19 17 17 16 13 2 -2 1 -6 -20 -20 -20 -20 -20 -20 -20 -20 -20 -20 -20 -20
-20 -20 -20 -20 -20 -20 -20 -20 -20 -20 -17 -8 6 8 11 10 10 7 -1 -4 -10 -13 -16 -19 -19 -20 -20 -20 -20 -20 -20 -20 -20 -20 -20 -20 -20 -20 -20 -20 -20 -20 -20
-18 -20 -20 -20 -20 -20 -20 -20 -20 -20 -19 -13 -5 4 9 8 4 -5 -8 -18 -19 -14 -15 -20 -20 -20 -20 -20 -20 -20 -20 -20 -20 -20 -20 -20 -20 -20 -20 -20 -20 -20 -20
-17 -17 -19 -20 -20 -20 -20 -20 -20 -20 -20 -20 -20 -20 -20 -19 -18 -8 -20 -20 -20 -20 -20 -20 -20 -20 -20 -20 -20 -20 -20 -20 -20 -20 -20 -20 -20 -20 -20 -20 -20 -20 -20
-18 -20 -19 -20 -18 -17 -19 -20 -20 -20 -20 -20 -20 -20 -20 -20 -20 -20 -20 -20 -20 -20 -20 -20 -20 -20 -20 -20 -20 -20 -20 -20 -20 -20 -20 -20 -20 -20 -20 -20 -20 -20 -20
-16 -16 -18 -18 -19 -19 -13 -11 -20 -20 -20 -20 -20 -20 -20 -20 -20 -20 -20 -20 -20 -20 -20 -20 -20 -20 -20 -20 -20 -20 -20 -20 -20 -20 -20 -20 -20 -20 -20 -20 -20 -20 -20
-20 -20 -20 -20 -20 -20 -20 -20 -20 -20 -20 -20 -20 -20 -20 -20 -20 -20 -20 -20 -20 -20 -20 -20 -20 -20 -20 -20 -20 -20 -20 -20 -20 -20 -20 -20 -20 -20 -20 -20 -20 -20 -20
-20 -20 -20 -20 -20 -20 -20 -20 -20 -20 -20 -20 -20 -20 -20 -20 -20 -20 -20 -20 -20 -20 -20 -20 -20 -20 -20 -20 -20 -20 -20 -20 -20 -20 -20 -20 -20 -20 -20 -20 -20 -20 -20
-20 -20 -20 -20 -20 -20 -20 -20 -20 -20 -20 -20 -20 -20 -20 -20 -20 -20 -20 -20 -20 -20 -20 -20 -20 -20 -20 -20 -20 -20 -20 -20 -20 -20 -20 -20 -20 -20 -20 -20 -20 -20 -20
Wind_Speed
16 12 12 11 11 10 10 9 9 8 10 11 10 9 11 13 13 13 13 9 7 7 6 8 7 6 4 4 4 5 9 5 6 5 4 4 5 6 5 4 3 3 4
15 13 12 12 12 11 10 10 11 11 10 12 11 12 13 12 12 13 14 14 9 7 7 6 8 4 7 9 5 8 8 6 7 14 6 4 6 1 1 1 1 0 2
16 14 12 12 13 13 12 11 10 11 12 11 12 12 12 13 14 15 16 15 13 13 12 10 10 9 12 10 10 9 6 5 7 8 10 2 1 2 2 2 2 3 4
16 16 13 13 13 13 13 12 12 12 11 12 13 14 13 12 13 13 14 15 14 13 13 12 12 12 13 11 9 9 7 6 6 8 8 7 3 2 2 2 1 3 2
14 15 15 12 12 11 12 13 13 13 12 12 12 12 14 13 11 13 13 12 10 9 7 9 10 10 8 8 7 9 9 8 8 8 9 3 3 2 3 2 3 4 2
10 10 10 10 11 11 12 12 12 13 13 12 13 13 12 11 14 17 14 11 9 10 11 9 7 10 8 8 6 1 4 10 12 8 4 5 4 3 3 2 3 1 2
11 12 11 11 11 12 12 12 13 13 12 14 14 14 15 14 15 16 17 12 11 12 13 8 5 3 7 9 12 14 15 16 8 2 4 3 4 4 4 2 3 3 3
9 9 9 10 11 10 12 13 13 11 13 13 13 14 14 13 15 17 17 13 11 6 7 9 10 9 8 10 10 11 12 14 11 10 13 11 11 8 7 4 3 5 6
5 2 7 11 13 12 13 12 12 12 12 13 12 14 15 14 16 17 14 8 6 5 4 5 7 9 14 18 14 16 14 13 21 27 27 26 27 23 15 6 6 4 3
9 9 9 10 12 14 14 14 12 10 12 10 10 1 6 13 6 11 15 8 8 7 7 8 12 14 17 16 14 12 13 10 10 12 12 15 17 17 18 10 6 5 2
8 8 9 10 8 8 10 11 11 10 6 6 7 7 7 5 7 9 9 9 10 9 8 9 9 22 23 23 18 12 13 11 13 10 9 8 9 9 9 9 9 7 5
11 11 11 10 9 8 9 9 10 8 8 8 9 7 6 8 12 17 20 18 16 15 12 11 15 26 27 24 17 23 20 11 8 9 9 7 6 7 7 7 9 7 7
12 12 11 11 10 10 10 10 9 11 9 8 8 8 7 8 10 26 30 28 26 18 13 22 28 28 29 21 23 20 13 8 9 8 8 7 6 7 8 8 8 7 7
12 12 11 12 12 11 9 8 9 9 10 10 8 8 9 8 7 7 11 17 27 21 19 14 18 16 20 15 12 13 8 6 9 7 6 6 6 6 6 6 4 5 4
10 9 11 11 13 13 14 10 9 7 8 11 11 11 10 10 9 12 10 9 9 13 17 13 12 11 9 8 9 9 7 7 8 7 5 6 6 6 5 6 6 5 4
10 9 9 9 9 10 12 16 32 26 26 22 19 13 11 23 29 25 27 25 24 17 11 10 11 9 8 7 7 8 7 8 7 6 6 5 5 5 5 5 5 4 3
8 9 9 10 8 9 10 11 15 21 34 32 31 29 28 26 27 27 27 28 22 17 11 8 9 9 8 7 7 7 7 6 7 6 6 5 4 5 5 4 4 4 4
10 12 9 8 8 9 9 10 10 11 13 14 26 23 27 26 25 22 21 18 12 13 9 8 8 8 8 7 7 7 6 5 6 5 5 5 4 3 3 4 4 2 2
8 8 9 9 9 10 9 10 10 11 10 10 8 13 15 25 25 24 22 10 9 9 8 8 7 7 7 7 6 6 5 4 4 4 4 4 3 3 3 2 3 4 3
10 14 11 8 8 9 8 9 9 10 10 10 9 8 7 9 10 10 9 8 8 8 7 8 7 7 6 6 4 5 6 5 5 4 2 3 3 1 2 2 2 2 3
7 9 12 9 9 8 9 9 9 9 9 9 9 9 12 10 8 7 8 8 7 7 7 7 6 5 4 4 4 4 5 3 3 3 2 2 2 2 2 2 3 3 4
8 8 8 9 8 9 9 8 9 9 9 9 8 9 13 9 8 8 8 7 6 6 5 6 5 4 3 3 3 4 4 3 1 2 2 1 1 1 2 1 2 3 4
8 9 9 8 8 10 9 8 8 8 8 8 8 7 7 7 7 7 6 5 5 5 4 4 4 3 3 3 3 2 3 3 3 3 3 2 1 2 2 2 3 3 2
8 9 9 8 7 8 8 8 8 10 8 7 7 7 6 6 6 6 4 3 4 4 4 4 3 4 2 1 0 1 2 2 2 3 4 2 1 2 2 2 3 4 4
8 8 8 8 8 7 7 8 7 7 6 6 6 6 6 5 5 4 3 3 4 3 3 2 2 2 2 1 3 3 2 3 2 2 2 1 2 3 2 3 4 5 4
8 8 7 7 7 7 6 6 6 6 5 5 5 4 4 4 4 2 2 2 2 2 2 2 3 4 5 2 3 3 3 4 3 4 0 0 1 3 3 5 6 3 6
Wind_Direction
183 172 172 177 171 162 172 166 172 159 155 165 169 160 163 167 180 188 199 217 208 203 167 189 203 201 204 194 197 210 228 183 240 266 240 228 220 230 252 239 248 245 270
185 177 174 173 171 174 174 176 168 175 169 172 176 177 173 178 186 195 204 217 214 213 213 189 220 198 252 247 223 221 216 205 215 258 241 231 218 211 182 198 248 194 297
187 181 177 176 177 179 180 177 180 180 180 177 174 181 188 192 194 202 211 221 226 223 217 207 222 210 225 232 230 228 220 216 214 237 266 157 163 191 147 89 89 81 66
184 186 182 185 185 185 179 182 187 188 184 186 186 186 186 193 201 209 213 219 224 227 226 222 227 219 223 223 224 226 230 227 219 231 242 251 195 158 109 154 116 18 80
193 192 195 185 188 190 190 184 186 192 194 192 196 199 197 197 196 200 207 211 210 215 217 223 228 227 222 231 225 231 226 226 231 236 249 173 182 180 203 156 135 153 90
184 195 199 193 194 195 197 197 191 193 197 194 201 203 207 212 210 203 203 211 205 205 214 214 174 155 159 152 163 177 263 238 241 239 218 190 181 163 146 148 128 173 150
199 193 194 193 195 199 199 203 204 197 197 203 203 207 213 213 206 204 206 218 217 223 228 209 181 144 135 112 92 78 59 48 32 148 123 73 68 18 24 64 74 67 49
204 203 201 196 201 206 207 208 206 209 206 207 208 209 217 221 207 207 206 218 223 227 219 190 186 159 148 139 113 87 69 54 47 73 79 71 70 45 63 77 351 88 96
29 304 221 199 206 209 213 212 205 205 210 214 213 212 216 220 204 208 199 201 145 117 92 99 136 140 143 140 123 112 98 91 82 80 79 79 74 59 55 60 41 53 48
26 4 350 338 233 212 209 208 211 211 213 208 212 269 223 228 179 203 184 164 135 120 96 87 99 116 111 114 110 109 97 83 80 84 79 70 64 65 55 47 63 71 51
23 27 18 5 359 343 229 207 205 207 121 98 90 55 47 58 88 107 153 156 146 125 110 100 97 108 110 103 95 99 103 110 96 82 65 68 65 61 66 46 41 43 49
15 31 23 17 17 24 50 43 48 54 81 87 84 53 68 78 83 86 87 92 109 111 105 104 104 98 92 89 88 104 102 97 95 95 81 61 65 68 65 66 50 47 47
31 31 27 26 27 34 45 63 71 73 74 70 77 82 62 37 64 103 104 101 100 95 96 102 97 98 97 80 80 67 70 74 82 69 84 87 70 62 55 53 44 47 56
54 39 34 41 37 36 48 46 66 74 75 72 54 71 70 70 60 65 89 104 105 107 104 92 84 75 78 76 76 68 65 59 84 91 84 85 79 72 60 51 49 27 42
59 57 55 53 53 57 53 47 49 46 102 112 114 103 95 75 56 73 49 82 69 95 107 96 89 87 74 73 81 78 73 68 66 79 76 71 71 74 63 53 42 39 40
67 59 55 65 62 66 74 75 59 63 62 66 76 88 95 98 104 97 98 90 86 75 62 78 89 87 86 85 77 77 72 80 80 78 70 75 69 66 69 53 41 35 11
60 67 65 59 60 67 73 73 84 65 62 58 62 71 74 84 87 90 87 85 82 82 84 78 79 88 91 85 85 81 75 68 76 71 69 61 58 59 53 42 32 23 358
56 57 67 64 65 63 61 68 68 70 75 65 58 66 67 72 74 75 80 74 64 65 77 78 81 81 80 87 84 82 71 68 72 72 65 60 53 61 43 30 19 339 318
64 60 68 70 68 70 73 73 72 75 67 73 59 51 49 67 66 64 64 69 76 73 73 75 65 69 73 72 75 81 85 73 71 68 48 58 30 57 33 16 358 357 322
66 65 64 64 66 69 63 73 70 67 68 60 55 48 56 58 53 50 53 61 67 72 71 72 67 68 77 83 75 85 86 80 73 67 50 54 23 55 43 359 341 301 315
73 70 71 67 63 64 70 67 69 71 71 72 62 56 63 78 72 64 60 53 60 62 64 72 65 63 64 59 76 73 80 73 76 80 65 51 33 20 324 278 265 302 328
67 72 71 73 72 66 64 68 74 75 76 78 75 57 63 69 70 66 62 54 46 59 62 76 72 63 59 86 101 97 103 114 101 88 84 359 326 288 286 312 337 342 327
68 71 70 71 74 77 74 73 74 73 73 72 76 73 64 66 67 63 60 45 46 49 45 71 81 71 50 52 57 132 143 167 173 151 165 204 26 6 352 320 312 313 307
69 74 78 73 68 71 72 76 76 74 80 77 74 76 74 72 72 71 59 50 62 54 41 55 58 59 39 30 5 215 113 148 171 174 152 118 322 317 315 301 295 285 275
63 70 70 73 77 78 79 75 75 75 78 82 86 86 85 82 76 65 69 59 69 58 34 21 35 61 41 100 103 59 357 33 97 111 120 188 280 300 291 276 265 281 281
66 68 68 70 73 73 75 77 76 83 85 80 87 91 98 96 94 97 80 75 60 46 33 19 33 36 19 6 324 26 47 37 359 335 10 278 289 287 264 258 274 269 288